カタログに戻る

COSMOS 1823 DEB

運用中LEO
NORAD 18802·DEBRIS·🇷🇺 Russia

打ち上げ Feb 20, 1987 から Plesetsk Cosmodrome

Loading…

次のパス (今後24時間)

TLE

最新Source: Space-Track

元期: Sep 13, 2026, 06:34 UTC

1 18802U 87020AN  26256.27416618  .00000148  00000-0  13636-2 0  9996
2 18802  73.5954 338.5880 0103763 231.5234 187.7428 12.30973981737916

AllMySatでCOSMOS 1823 DEBをリアルタイム追跡

Download on the App Store